GFSGBSN_700_rhum_000.txt.gz
RH
6 41 99 88 46 26 18 13 13 20 25 23 23 22 22 33 34 25 33 51 58 66 65 63 64 66 62 56 54 55 50 50 51 52 47 40 48 60 47 46 40 60 48 46 44 42 50
1 6 43 44 99 54 32 18 14 13 20 24 20 24 24 26 38 25 24 38 57 70 60 55 60 63 62 56 56 57 51 45 46 49 51 47 43 50 68 63 62 63 79 60 53 48 48
1 1 0 6 61 100 73 37 17 14 14 20 20 23 27 25 38 35 18 30 52 65 59 52 56 57 54 57 56 53 54 50 48 46 45 41 38 51 78 73 68 73 77 93 62 59 70
1 1 1 0 12 78 100 72 49 17 14 14 18 19 29 30 34 42 22 20 39 54 53 64 57 54 44 57 57 53 55 51 50 50 50 54 53 78 94 94 89 83 81 97 77 83 71
2 2 1 1 0 11 59 97 86 61 25 14 15 16 28 35 37 47 37 16 24 39 47 54 60 58 51 45 53 58 55 53 50 50 49 79 90 86 96 98 97 99 97 92 87 83 87
2 2 2 1 1 0 39 74 94 86 70 70 47 17 26 38 42 51 47 26 22 24 34 46 54 55 46 43 54 56 56 54 56 55 52 70 100 99 100 97 95 88 86 76 85 84 74
3 3 2 1 0 0 4 23 72 97 90 71 89 56 48 40 48 54 57 40 34 35 30 36 40 39 44 44 49 63 65 62 60 68 66 57 67 80 58 68 99 87 85 85 89 85 83
4 3 2 1 0 1 2 67 99 94 96 89 72 88 87 49 55 58 60 52 35 34 31 28 28 33 50 60 60 64 70 68 62 65 77 89 92 72 54 47 87 100 97 87 79 82 93
3 2 1 0 0 2 4 27 99 99 99 97 78 82 98 97 73 59 63 59 46 39 39 33 33 31 38 75 92 77 85 82 74 68 81 89 71 58 57 55 64 65 87 92 91 71 83
2 3 3 0 4 39 22 6 46 98 99 98 86 82 99 100 83 68 65 64 54 42 46 41 36 44 50 59 98 79 96 97 95 80 71 100 74 67 68 79 71 79 64 64 66 89 93
6 31 29 9 32 68 84 90 11 97 98 99 94 85 100 98 90 71 70 67 58 49 70 54 62 60 62 68 88 77 92 100 94 87 87 87 75 68 68 63 67 77 69 76 83 89 88
23 52 17 26 77 85 86 83 65 29 98 98 98 99 93 99 95 83 80 73 63 71 90 56 60 61 68 68 96 96 92 93 96 97 98 96 98 87 76 63 68 89 93 86 89 87 92
69 50 13 30 88 93 90 81 78 59 71 98 98 99 86 99 83 89 82 66 64 100 53 70 59 73 79 76 80 100 98 98 98 99 98 98 93 92 82 81 82 79 92 93 97 91 81
66 59 47 68 95 92 95 95 100 82 49 98 98 97 86 86 97 96 77 77 96 51 58 70 73 82 82 80 95 97 97 95 92 99 97 100 98 92 77 72 90 82 80 85 91 97 77
70 60 65 41 87 96 98 90 98 93 63 93 98 92 95 98 97 94 86 96 50 42 63 72 90 100 100 100 94 90 94 94 99 99 99 96 91 67 63 74 74 81 96 53 92 71 79
68 60 56 40 77 96 97 86 99 96 98 93 97 98 88 98 99 99 98 69 52 67 73 86 88 92 91 87 96 98 99 67 80 72 84 89 88 72 82 98 97 79 60 89 92 100 92
65 55 48 34 81 93 97 86 99 97 89 98 99 98 99 89 100 99 97 77 68 62 74 88 84 99 84 84 84 84 77 66 67 75 80 84 96 92 86 74 86 100 94 76 67 79 98
75 58 38 31 59 81 96 98 94 97 96 97 98 98 97 100 98 98 92 92 92 81 83 97 97 98 87 88 86 89 80 68 63 66 77 76 97 99 87 75 76 86 94 84 71 63 78
81 65 29 13 40 58 97 97 94 98 90 97 99 98 99 100 98 98 82 96 98 99 100 98 96 99 99 91 95 83 80 67 63 82 93 90 98 97 90 98 97 99 91 63 65 65 96
79 70 35 4 27 58 98 97 97 98 98 98 98 98 99 99 97 89 83 100 99 100 100 98 98 99 92 96 92 88 71 67 74 88 98 98 96 95 94 98 100 100 100 97 95 87 77
81 71 43 3 22 66 92 99 93 97 97 98 98 98 98 97 99 96 99 99 100 100 100 95 98 98 98 98 91 83 77 72 88 91 98 98 96 94 93 97 97 100 88 81 99 96 85
81 76 54 10 16 73 86 88 95 98 95 96 98 99 91 89 98 97 100 99 99 99 100 98 98 97 98 85 72 79 80 78 85 94 98 97 96 97 97 99 98 99 95 99 100 100 97
72 82 63 8 4 45 63 81 98 99 99 98 98 95 90 91 98 100 95 90 93 99 92 95 96 100 100 87 83 84 91 86 95 98 99 98 98 99 99 100 100 100 91 85 90 96 96
70 85 62 21 3 20 75 53 97 97 96 97 99 99 98 98 100 99 99 100 99 97 100 93 87 96 100 82 89 95 93 78 91 92 92 99 98 99 100 100 84 65 82 93 77 92 94
61 75 76 63 3 12 45 65 97 96 96 97 89 100 99 98 92 97 98 99 99 85 77 84 91 96 100 100 99 99 98 98 79 90 84 92 91 92 88 79 68 63 66 89 97 87 77
65 60 67 69 6 9 28 84 98 96 94 98 98 99 96 97 86 99 99 100 99 93 87 95 100 98 99 95 99 98 95 81 81 87 83 97 92 97 90 82 67 46 51 57 61 60 61
65 74 65 18 7 11 58 57 90 96 98 98 99 100 100 98 93 100 96 97 85 79 86 92 98 99 100 98 99 99 99 83 82 80 89 94 98 98 96 97 64 51 45 56 60 50 48
72 78 73 17 8 11 35 28 97 98 99 98 97 100 96 98 98 98 96 89 95 95 98 97 98 99 100 99 98 99 100 88 88 79 81 90 85 87 92 91 80 60 52 55 52 43 53
51 60 76 29 8 15 27 30 97 99 98 99 100 100 90 94 95 90 90 100 97 83 94 98 98 99 100 99 93 95 100 95 100 87 86 85 74 86 78 64 64 68 63 54 49 48 49

GFSGBSN_700_rhum_003.txt.gz
RH
2 2 1 4 26 99 97 90 50 24 17 15 22 25 24 28 29 37 27 29 42 61 65 67 66 64 61 61 62 60 57 54 53 50 48 50 55 59 54 47 42 43 34 50 53 46 47
1 1 1 1 7 9 68 100 98 60 23 16 15 23 26 28 29 36 33 24 32 47 64 72 67 66 66 60 61 58 52 53 53 50 50 48 46 58 58 64 61 50 52 49 54 57 53
2 1 1 1 1 0 5 95 100 98 61 22 14 20 26 26 34 34 40 24 23 38 57 67 55 53 52 61 59 56 52 50 50 51 51 48 49 53 66 63 72 65 56 61 65 51 57
2 2 2 2 2 2 1 33 77 100 92 65 20 37 64 25 36 37 44 36 19 28 52 63 61 59 51 58 56 53 57 53 52 50 49 47 45 42 62 90 93 94 85 70 46 65 62
2 2 2 2 2 2 1 1 45 94 97 86 82 81 89 65 32 47 44 48 23 20 40 58 53 55 56 51 53 49 52 59 59 52 46 45 44 76 74 99 97 88 89 84 90 60 73
2 2 3 4 3 3 2 0 0 22 71 100 87 87 90 76 43 46 52 55 36 22 27 39 43 52 54 56 53 54 53 51 56 54 51 46 50 95 98 97 96 98 98 92 92 76 82
2 2 2 2 2 2 1 0 0 12 87 100 99 87 88 93 58 50 53 54 39 34 29 30 45 47 46 46 49 52 48 47 58 58 55 56 63 88 88 98 85 94 96 97 85 89 76
2 2 2 2 2 1 1 0 0 0 27 82 99 95 93 91 100 74 63 57 46 40 41 40 39 38 33 28 31 49 54 57 63 62 61 74 66 59 69 87 83 85 94 87 83 84 86
2 3 6 6 4 3 1 1 0 1 21 74 99 98 93 100 94 100 70 60 50 45 44 38 38 35 32 43 47 52 55 64 70 72 69 66 67 60 69 62 64 64 75 88 92 92 81
5 13 33 42 30 14 16 70 64 15 10 95 97 99 98 100 99 98 91 67 51 47 61 44 40 45 40 50 62 48 52 75 90 82 79 96 86 75 73 66 69 78 69 65 65 77 89
10 51 93 85 51 35 86 77 77 81 64 43 97 99 98 98 94 99 66 79 57 61 77 52 57 54 61 65 81 69 73 87 100 100 94 88 77 66 71 63 64 91 75 83 78 83 89
92 71 80 72 58 52 78 85 89 85 84 65 68 99 98 98 96 89 99 81 68 69 88 61 68 67 73 74 95 90 76 88 98 100 98 95 92 92 79 71 72 85 89 91 98 93 96
74 68 75 67 63 70 97 90 92 86 66 68 51 99 98 97 83 79 99 76 87 99 54 67 62 59 64 89 98 99 98 98 97 99 99 96 94 99 90 82 79 82 92 96 98 96 82
83 84 78 67 60 78 96 95 97 72 76 73 58 99 98 98 100 99 96 86 76 55 47 63 67 68 71 75 76 91 94 94 99 100 98 97 95 92 95 78 80 79 78 87 84 96 78
87 88 89 69 75 36 90 96 100 92 79 78 59 91 97 96 97 100 94 96 65 46 51 59 80 92 89 90 91 98 96 97 90 86 100 96 96 77 66 74 95 96 97 65 73 79 97
85 82 88 77 84 60 93 97 98 94 98 90 93 94 98 98 97 99 100 86 61 47 53 69 74 78 98 100 96 99 100 68 96 77 91 99 92 76 80 91 93 98 85 96 97 95 94
84 77 83 73 97 71 87 93 97 98 97 96 93 96 97 98 98 99 99 84 69 50 70 96 87 88 99 81 72 92 82 58 63 67 87 98 98 94 88 92 85 98 98 93 82 74 93
89 80 79 63 93 38 39 79 96 98 97 92 85 95 98 95 97 99 94 75 71 59 60 90 78 95 99 87 83 95 74 69 59 62 81 92 100 96 79 76 84 93 83 84 96 79 68
95 73 86 73 87 12 24 48 98 97 98 97 97 98 99 99 96 94 82 78 84 88 83 76 85 95 98 97 95 84 83 70 78 72 77 84 97 94 92 97 98 97 93 86 66 75 63
98 78 88 78 76 7 22 47 89 97 98 89 96 97 97 98 94 70 87 91 94 95 92 92 98 99 99 100 87 91 84 74 72 85 97 96 97 92 84 90 97 100 95 81 93 86 82
100 85 93 84 42 3 22 42 93 98 98 95 97 99 85 98 98 72 86 88 92 95 97 96 98 98 98 100 100 87 80 82 98 97 97 98 98 96 91 95 98 96 98 90 100 75 74
99 87 93 80 70 0 19 39 93 99 95 98 98 98 90 78 88 100 94 88 91 98 98 98 99 98 99 99 96 80 81 82 88 95 98 98 98 98 97 97 97 99 100 99 76 83 91
94 92 89 86 75 0 3 33 90 96 99 98 99 96 85 76 97 99 96 83 95 98 97 88 97 99 98 98 94 75 80 91 98 99 98 99 98 98 94 99 99 99 84 93 85 88 90
89 86 94 88 58 1 2 39 88 96 97 98 98 98 98 96 98 92 83 97 97 98 92 92 100 100 89 100 87 77 80 80 92 99 97 99 99 98 98 99 97 93 82 84 91 74 74
72 83 76 91 29 1 5 15 95 98 98 98 96 98 100 89 94 80 92 96 98 98 97 93 89 76 98 100 96 94 84 94 87 85 77 95 100 99 100 94 79 82 98 94 98 95 85
76 54 83 84 39 1 9 48 94 100 96 81 89 98 98 97 92 99 98 99 99 99 99 81 78 87 98 99 97 98 94 88 87 79 79 98 100 98 94 95 66 61 70 91 100 98 79
74 52 45 67 51 3 8 50 98 100 89 83 99 98 98 99 95 97 97 99 95 98 91 75 88 94 98 99 98 99 98 84 82 82 84 86 91 98 98 98 66 66 64 74 98 54 59
53 66 58 62 61 9 8 40 93 100 91 84 94 94 95 86 96 97 94 96 96 99 100 97 98 99 99 99 100 99 99 90 79 76 78 82 86 88 96 88 75 61 64 66 57 50 59
53 63 38 44 61 18 14 23 80 99 100 98 98 98 99 97 98 92 86 99 100 99 85 96 99 99 99 99 89 98 98 94 87 84 76 88 77 75 65 69 67 66 58 51 51 53 54

GFSGBSN_700_rhum_006.txt.gz
RH
1 1 1 1 1 1 2 46 98 99 97 95 45 25 92 31 29 32 32 37 29 40 65 69 72 72 67 65 65 66 70 63 60 64 69 71 69 65 57 49 48 54 42 38 39 42 42
1 1 1 1 2 2 2 1 10 71 99 95 96 68 68 89 30 31 33 37 31 29 48 66 75 75 73 64 73 69 68 69 70 67 62 59 56 64 61 61 60 56 44 45 43 42 42
1 1 1 1 1 2 2 2 2 18 89 99 99 83 57 92 86 30 35 36 40 25 34 59 73 68 59 63 69 66 60 59 59 59 60 58 61 55 49 46 52 50 53 52 47 35 36
1 1 1 2 2 2 2 2 2 2 58 100 98 98 69 74 95 51 37 41 44 35 23 43 68 69 61 66 63 64 61 58 59 58 57 55 55 55 51 48 64 84 83 59 44 43 51
1 1 2 2 2 2 2 2 3 2 1 65 99 100 89 76 84 89 55 50 49 45 24 26 46 63 56 61 62 59 56 56 62 60 59 56 50 50 50 51 52 70 83 88 84 83 68
2 2 2 2 2 2 2 2 2 2 1 5 65 99 98 82 90 100 94 68 57 52 34 21 28 51 56 60 61 62 60 56 56 63 62 57 56 57 77 66 67 59 93 91 89 88 67
2 2 2 2 3 3 2 2 2 2 0 0 8 87 99 94 87 100 91 97 68 51 46 30 36 43 38 52 57 58 54 56 56 55 54 53 59 66 53 54 67 73 85 98 91 88 90
2 3 16 69 62 27 11 8 4 2 2 0 1 19 99 98 92 99 99 74 75 58 44 38 34 30 32 37 46 54 53 49 52 53 59 65 56 53 62 69 90 100 99 94 84 81 77
5 11 34 97 87 79 66 42 12 50 69 30 1 60 98 99 99 99 98 98 74 62 54 42 39 38 38 40 43 39 41 53 63 65 68 65 58 66 63 76 86 95 100 99 73 52 50
4 13 68 71 70 68 56 60 69 96 94 94 29 7 96 98 99 95 99 85 75 72 54 45 37 38 35 39 41 38 45 62 79 76 74 75 68 80 83 76 90 84 74 68 74 77 93
14 44 67 72 76 64 71 77 83 95 95 98 89 25 76 99 98 99 88 84 78 67 85 49 54 47 47 46 62 49 62 77 86 84 84 73 78 76 82 82 84 96 81 79 90 90 94
76 74 72 80 85 69 69 86 96 84 87 80 82 44 56 98 98 99 97 100 96 67 83 66 66 78 66 65 89 86 71 86 100 100 100 96 96 99 94 81 87 93 93 90 94 100 95
65 76 73 83 89 75 64 86 87 96 98 88 75 62 68 98 98 98 98 99 78 78 61 66 78 81 100 92 100 100 80 100 98 100 96 92 82 95 96 91 93 97 97 96 98 97 88
68 83 81 80 89 83 79 70 93 97 96 94 69 64 84 96 96 99 98 95 80 64 60 66 69 85 99 100 99 100 98 99 100 99 95 96 92 76 70 82 83 82 88 91 88 92 85
86 82 80 78 90 85 60 89 94 97 97 96 65 72 88 95 97 98 98 96 67 58 58 55 74 98 100 94 93 100 100 99 100 99 97 96 95 82 72 64 90 98 97 68 82 70 92
60 85 84 72 86 82 50 64 81 94 97 98 92 80 90 100 98 98 99 86 77 66 51 56 55 66 76 82 94 100 94 64 87 86 100 99 98 84 80 83 99 97 96 98 98 96 94
92 91 85 70 85 74 44 49 61 74 97 93 97 98 93 98 98 98 99 94 76 63 50 74 73 80 94 99 100 100 75 57 60 64 81 98 98 90 95 90 82 94 99 97 92 92 91
95 94 84 81 86 71 38 33 47 84 97 97 100 66 94 98 97 96 97 95 76 65 56 90 95 81 83 97 89 96 75 62 66 65 85 96 100 100 84 70 74 68 68 74 85 81 82
96 95 73 93 88 68 15 18 37 85 97 98 98 86 97 98 97 98 93 79 78 74 69 63 65 70 84 100 98 87 83 70 79 83 77 86 96 96 93 92 93 97 86 90 81 86 75
94 92 83 94 96 84 4 14 26 82 98 95 98 98 98 98 98 79 79 80 77 79 81 78 81 77 93 99 99 86 91 86 79 74 86 91 96 93 86 90 96 98 93 95 100 97 82
95 84 72 93 94 86 2 16 31 87 98 96 98 100 98 97 97 87 72 78 82 89 89 95 88 93 98 99 95 98 86 78 97 95 97 98 94 92 94 97 98 97 97 96 98 85 91
93 80 84 95 89 26 2 21 33 94 98 100 96 98 88 86 94 89 76 81 88 93 98 96 91 95 98 99 96 93 91 98 100 91 97 98 98 98 98 98 98 98 92 96 98 89 95
95 80 78 81 78 6 1 25 94 95 99 98 98 98 94 95 98 90 76 77 81 89 99 99 98 99 97 97 98 97 98 100 91 100 99 99 98 98 91 98 99 98 97 99 90 93 93
92 93 48 80 69 4 3 33 94 95 97 95 98 99 99 89 96 82 68 84 82 92 96 100 95 98 98 98 99 100 93 80 82 76 82 95 99 98 94 98 98 98 99 90 61 68 72
90 79 70 38 51 6 2 18 95 97 98 97 98 100 100 93 82 93 93 84 96 98 100 93 87 97 100 92 99 96 84 67 63 77 74 87 99 98 98 99 87 74 99 68 70 63 68
53 53 73 48 58 12 4 38 83 76 85 96 96 98 98 95 76 75 85 88 93 100 99 92 97 89 86 95 99 95 82 94 82 84 72 93 100 99 97 100 77 78 96 98 98 91 86
34 37 46 32 34 27 7 26 89 75 78 92 95 98 99 99 88 89 93 84 91 97 99 96 88 88 98 98 99 92 91 89 83 82 96 98 99 96 93 96 78 68 70 89 84 62 63
17 42 45 41 37 45 11 20 91 93 83 98 98 98 98 96 95 97 87 98 98 96 97 97 100 95 100 99 98 93 90 87 86 76 76 80 83 87 100 95 74 69 69 71 59 51 63
10 65 55 56 44 46 29 14 72 100 95 94 90 98 93 96 94 91 94 94 91 96 97 99 98 100 99 99 98 96 99 96 85 75 74 80 76 79 76 71 75 72 69 66 57 54 54

GFSGBSN_700_rhum_009.txt.gz
RH
1 1 1 1 1 1 1 2 2 2 77 92 98 99 92 48 89 59 34 33 36 34 36 56 68 73 67 78 72 72 80 77 77 83 94 91 79 69 66 55 57 60 45 40 34 32 32
1 1 1 1 1 1 1 1 2 2 2 26 57 100 86 90 60 85 52 36 38 39 30 50 64 71 74 66 81 75 69 87 82 71 73 73 66 69 66 61 65 58 46 42 44 41 37
1 1 1 1 1 2 2 1 1 2 2 2 9 74 99 96 68 81 83 44 42 42 33 32 47 64 72 76 74 70 68 63 62 66 68 68 70 64 59 60 63 64 60 56 40 35 44
1 1 1 1 2 2 2 2 2 2 2 2 2 55 100 99 82 80 89 82 51 49 42 29 30 43 61 72 67 71 69 65 63 64 64 67 71 66 64 62 63 61 69 55 44 38 38
2 1 1 2 2 2 3 3 2 2 2 2 2 18 94 100 98 82 95 89 73 57 49 41 28 28 48 65 70 69 69 69 67 64 65 65 62 63 60 56 55 52 60 66 59 61 60
2 2 2 4 12 9 10 8 8 5 4 2 2 1 52 99 100 88 99 94 89 76 54 48 33 26 36 60 61 68 66 63 63 67 69 66 67 64 60 50 58 53 63 68 70 67 62
2 2 3 8 36 76 88 59 44 26 10 9 4 2 1 78 98 91 99 99 97 79 58 41 35 33 37 50 54 61 68 65 66 69 69 71 68 58 49 52 55 66 72 87 88 79 81
2 3 4 10 42 65 91 68 53 44 42 88 50 32 1 42 98 99 99 99 86 75 55 54 47 34 38 40 47 61 64 62 60 56 60 63 56 52 62 66 64 68 82 78 81 80 77
2 3 6 24 34 81 83 69 50 74 83 93 98 97 42 2 82 98 99 100 93 84 63 53 47 40 36 35 43 45 58 63 57 51 54 57 59 62 59 69 79 92 100 99 98 96 64
3 4 7 16 57 74 76 71 68 73 90 96 94 98 83 9 36 98 98 100 99 81 61 48 39 40 40 41 45 50 51 56 53 54 65 63 58 63 68 76 78 82 86 82 83 93 96
4 5 8 41 76 76 80 78 68 82 79 90 72 91 95 26 74 98 98 99 100 87 64 42 48 44 42 45 50 43 48 54 64 65 66 57 67 71 73 68 83 89 88 83 80 91 98
4 5 10 69 79 81 86 83 71 66 96 98 86 76 77 73 64 98 98 99 99 71 77 53 54 62 54 63 84 71 66 90 98 93 98 93 94 95 93 88 90 87 97 100 92 94 96
5 6 10 76 86 85 86 94 69 79 95 96 92 67 58 74 52 98 98 98 96 65 53 67 65 95 98 83 100 98 99 100 98 100 100 90 88 83 90 98 90 91 97 94 97 97 83
5 6 61 89 88 86 89 96 51 89 96 96 97 69 58 70 59 97 98 98 94 60 63 61 64 99 99 99 99 97 100 98 98 100 100 93 79 69 62 59 75 88 90 90 89 81 73
9 24 86 92 82 88 88 96 43 58 96 97 78 70 59 49 90 98 98 97 68 58 50 57 99 100 99 98 99 99 98 98 97 99 91 87 91 82 75 74 76 98 100 69 96 95 97
11 74 91 92 73 93 85 94 41 50 95 97 98 86 66 35 97 98 98 92 73 56 49 51 58 84 99 98 98 100 99 81 87 78 98 91 99 80 89 82 80 90 100 99 98 95 90
19 94 88 88 78 91 77 85 30 32 94 97 96 98 96 53 95 98 96 96 72 58 55 54 58 69 81 91 96 100 86 62 60 58 97 100 99 91 82 82 62 91 99 99 97 97 86
17 89 88 87 85 91 81 70 18 23 87 96 98 99 94 94 98 98 97 92 77 67 62 62 61 64 79 91 100 99 85 61 60 62 73 79 100 96 80 72 74 73 78 82 96 87 94
20 89 80 85 93 88 78 15 14 23 71 93 100 83 98 98 99 98 97 84 75 66 61 59 56 71 75 80 88 92 87 78 77 75 82 80 98 97 85 84 95 98 91 94 93 94 93
14 82 74 89 90 85 5 6 17 39 91 96 96 98 96 98 93 88 98 86 82 78 72 67 64 62 72 96 99 95 85 89 92 81 86 92 94 84 77 76 98 97 96 97 97 96 82
13 77 79 83 90 82 1 19 41 90 96 97 98 99 90 98 97 91 90 90 85 81 74 73 82 94 81 91 100 88 87 96 94 86 96 98 99 97 84 93 98 97 97 96 97 81 94
5 26 81 70 76 26 1 66 98 100 97 98 98 99 96 94 100 94 95 86 73 72 71 85 91 98 97 99 94 89 93 83 79 84 96 100 98 99 96 92 98 98 99 98 98 96 98
3 9 37 83 31 18 2 44 98 95 95 100 99 96 89 95 95 87 81 75 72 74 89 94 94 94 98 99 98 88 98 84 97 99 99 99 100 98 94 96 98 98 95 99 99 99 89
3 3 8 45 39 15 3 40 99 96 92 97 94 96 90 86 80 74 88 81 84 82 87 97 97 96 97 97 94 80 83 91 97 95 98 100 100 99 97 96 98 98 100 98 100 92 91
3 3 6 16 19 15 7 11 95 96 98 98 98 98 98 96 93 88 84 81 82 84 86 90 99 97 98 93 84 90 83 87 66 65 77 84 99 98 98 98 94 92 100 99 73 65 67
3 3 4 16 25 21 8 8 86 95 98 97 99 98 100 94 80 81 77 80 87 88 97 93 97 97 100 97 85 98 89 80 81 88 83 81 100 100 99 99 96 75 94 85 90 77 86
4 4 2 18 39 29 21 8 59 96 85 95 97 98 98 100 84 79 81 81 82 94 99 95 98 93 90 86 96 99 90 88 84 80 92 99 95 97 98 97 82 75 75 87 72 67 73
4 4 3 6 22 30 28 15 27 97 100 100 96 97 98 99 92 81 87 75 75 84 86 99 99 97 91 100 99 98 97 80 82 81 75 78 85 82 97 99 78 72 68 69 62 59 69
4 5 5 2 28 61 38 28 15 86 98 100 100 100 100 97 95 90 80 89 89 96 97 100 99 97 94 98 99 100 97 99 94 83 75 77 74 76 78 68 73 72 69 62 58 58 58

GFSGBSN_700_rhum_012.txt.gz
RH
2 2 2 2 1 1 1 1 1 1 1 2 6 57 99 100 99 77 84 79 38 35 38 39 56 72 71 74 75 70 83 69 64 80 81 83 82 76 74 63 60 58 45 35 32 27 28
4 3 2 2 2 1 1 1 1 1 1 1 2 8 70 82 98 94 80 94 63 41 41 35 53 71 74 70 72 79 83 83 80 76 93 95 99 99 95 84 74 60 47 43 42 40 41
5 4 2 2 2 2 2 2 2 2 2 1 2 2 3 43 92 99 84 94 90 44 46 36 41 63 69 73 76 74 70 78 86 82 92 80 78 77 68 73 71 61 51 47 38 38 43
6 5 3 2 2 3 4 4 5 4 3 3 2 2 2 2 53 99 96 99 94 73 54 44 32 41 52 71 75 72 72 71 77 88 83 84 81 70 72 63 60 56 53 66 56 43 44
7 5 3 2 4 20 36 38 45 41 30 14 4 4 2 2 18 99 95 96 99 88 62 51 39 30 40 51 70 69 69 73 74 73 76 78 70 77 65 61 77 78 68 84 76 44 56
8 5 4 3 8 33 49 91 94 84 64 42 22 12 5 2 14 98 98 99 99 95 69 60 37 42 34 39 67 72 72 74 75 75 78 74 72 76 57 74 64 66 86 80 70 74 47
8 5 4 3 3 5 17 44 90 81 56 60 64 65 22 4 5 96 98 99 99 99 80 47 36 40 32 39 67 68 72 72 76 80 88 73 80 58 53 56 73 57 68 81 83 55 55
8 5 4 4 4 9 59 78 75 72 69 72 90 85 96 66 8 53 98 98 91 89 83 51 54 39 35 55 63 62 71 76 76 76 85 79 71 60 60 59 58 62 86 83 82 85 70
8 5 4 4 9 89 87 86 74 75 75 86 92 91 97 94 13 52 98 98 100 99 98 71 50 53 44 41 50 54 63 70 74 76 69 72 65 52 58 64 72 92 94 88 87 88 92
6 4 4 10 76 83 88 83 84 79 72 77 90 87 81 98 35 25 98 98 99 98 98 82 54 45 47 40 42 44 68 76 71 69 64 66 78 65 77 80 72 91 92 93 98 99 81
6 4 6 56 93 95 94 76 89 82 67 71 91 98 82 81 89 51 89 98 99 98 94 67 53 48 44 47 46 46 59 75 70 63 57 68 63 66 70 59 74 93 81 96 100 96 95
5 4 27 95 95 89 82 76 89 74 60 65 89 94 89 61 90 72 61 98 98 97 88 68 64 56 46 53 55 54 66 76 76 77 70 90 78 77 79 77 83 88 99 100 100 100 92
4 17 94 94 91 86 67 79 88 66 67 93 96 98 87 79 90 86 89 97 97 95 64 81 79 100 77 93 95 69 77 94 88 97 100 99 82 69 81 96 95 100 100 74 82 93 64
4 40 98 92 84 73 78 86 72 54 55 94 98 92 47 64 70 98 89 98 96 84 90 82 93 100 100 95 100 98 95 98 99 97 98 99 80 77 51 51 91 95 96 66 62 43 41
4 32 94 87 75 73 78 75 59 43 85 97 97 80 71 68 79 98 96 97 96 69 54 79 99 100 99 98 99 95 98 98 97 98 92 93 92 56 55 69 80 100 99 85 87 72 82
3 36 93 83 72 78 76 78 52 38 33 96 95 90 84 75 87 87 97 96 85 64 47 62 97 100 100 98 98 98 99 82 99 92 95 99 95 58 78 78 72 90 99 94 99 79 66
3 33 79 80 86 84 73 37 36 27 48 94 99 98 97 84 70 58 96 95 78 74 57 68 65 82 96 98 100 99 97 70 67 53 96 100 92 96 84 76 74 97 100 98 93 88 70
3 16 83 61 95 89 13 12 17 19 63 94 97 98 94 94 97 97 98 88 73 80 68 61 63 55 62 69 84 97 93 70 57 62 78 82 99 97 96 76 81 86 89 98 97 81 97
3 6 40 32 57 25 10 18 27 47 63 90 97 98 99 90 94 95 97 90 76 69 65 61 60 61 63 58 77 90 83 74 67 64 73 91 96 99 76 79 82 100 75 92 98 98 93
3 3 8 20 9 8 13 70 89 96 92 95 98 98 93 86 97 80 95 89 76 70 66 59 57 58 60 69 76 92 84 81 77 78 90 92 100 87 70 64 81 98 97 97 97 98 78
4 2 2 6 9 6 18 83 87 90 97 92 89 94 96 100 90 95 92 85 74 68 66 66 65 65 66 74 92 88 86 89 90 86 84 98 100 95 78 88 98 100 99 99 98 84 95
4 3 2 3 5 5 35 79 78 80 94 93 98 90 71 72 84 88 92 88 85 75 75 69 70 81 91 95 90 94 88 91 89 90 99 100 99 91 91 96 99 99 97 100 100 99 99
6 3 2 2 4 6 23 67 77 69 80 86 99 98 96 97 88 80 76 83 83 78 90 94 88 87 94 95 98 95 99 99 98 100 94 94 92 98 94 97 98 98 99 100 96 97 99
8 4 3 1 4 5 7 52 73 69 76 81 92 90 79 77 82 84 82 81 79 81 88 90 90 87 98 94 91 88 80 90 99 100 100 88 96 99 97 96 96 99 100 100 96 90 100
9 4 4 2 2 4 6 23 67 78 84 92 94 97 93 92 82 86 88 90 86 86 87 81 90 96 95 91 94 91 98 93 79 80 85 96 100 98 98 98 87 98 97 99 99 95 88
10 4 4 3 0 1 4 5 47 82 96 100 99 89 90 88 72 75 73 82 79 78 83 83 92 95 96 97 90 98 92 82 82 82 91 100 99 100 99 98 91 97 92 98 99 86 79
10 6 5 4 2 1 2 4 22 71 94 98 100 89 98 92 82 77 66 70 76 79 86 85 97 97 98 98 93 99 97 82 83 91 92 98 99 99 99 98 87 90 87 82 78 74 73
9 6 5 5 4 1 1 4 6 53 89 99 100 97 100 100 75 73 78 82 75 79 82 89 97 92 97 99 98 94 96 87 83 78 78 85 97 92 92 93 83 74 68 70 64 61 66
10 6 5 6 5 2 1 2 7 12 82 100 100 93 99 100 91 73 76 80 84 84 98 99 93 89 93 98 98 100 97 92 90 88 78 87 77 85 79 73 64 67 69 60 62 60 70

GFSGBSN_700_rhum_015.txt.gz
RH
6 6 6 5 4 4 3 2 2 2 2 2 1 1 1 2 62 97 96 88 96 89 47 38 37 49 70 83 96 80 85 71 55 72 82 57 62 92 93 85 88 91 72 64 73 60 62
8 8 7 6 6 5 4 4 3 3 3 2 2 1 1 2 30 99 100 88 98 97 71 39 38 48 72 79 97 100 92 82 68 78 84 90 97 100 99 97 89 88 87 81 76 53 77
9 8 8 8 7 6 6 5 5 7 7 6 4 3 2 2 2 62 91 99 92 100 92 42 40 48 70 87 87 85 99 90 77 71 85 93 95 97 96 98 99 76 67 66 45 45 77
12 11 10 9 8 6 19 49 68 78 68 59 33 11 3 2 2 2 16 99 95 99 97 50 45 44 69 71 82 80 85 95 89 77 96 100 99 100 100 97 71 59 83 75 62 62 72
15 13 11 10 7 4 9 68 81 90 73 78 68 46 20 4 3 2 5 78 100 99 99 82 52 39 60 54 75 83 79 85 82 82 92 96 96 100 90 88 82 80 64 61 61 68 73
17 15 11 8 4 6 61 99 97 84 77 77 75 66 55 48 12 3 32 42 100 99 99 100 56 48 44 42 55 79 80 77 79 75 79 81 99 99 91 91 63 58 70 64 56 55 71
18 14 9 5 4 39 97 94 97 89 81 81 77 72 76 73 81 24 87 87 98 99 98 97 49 47 48 35 44 74 80 82 84 81 70 77 92 81 85 85 79 75 69 60 57 61 67
17 11 7 4 12 96 99 96 88 89 89 85 86 83 75 85 97 100 92 98 98 98 98 98 57 45 49 39 60 74 84 84 92 84 99 94 77 82 91 89 89 85 78 71 66 66 68
15 10 6 13 58 93 94 92 93 85 96 92 78 78 79 82 84 95 64 98 98 98 98 99 81 56 49 55 59 68 76 87 93 99 100 99 90 61 88 94 80 83 80 74 70 70 74
13 8 11 52 90 91 92 89 87 84 95 89 88 72 88 78 78 70 72 95 98 100 97 98 83 61 52 48 56 59 76 92 99 98 98 99 92 76 70 75 83 79 73 75 80 80 65
11 8 26 96 89 89 88 78 82 85 91 74 55 58 74 96 89 96 83 66 98 98 96 97 98 91 63 55 67 56 75 78 99 98 98 96 69 82 82 57 92 85 89 89 88 83 82
10 6 15 90 89 80 77 88 91 79 74 54 88 97 97 93 91 83 82 97 98 98 95 98 100 77 58 84 60 67 78 74 96 100 100 89 95 72 86 72 76 97 95 98 94 94 86
10 4 20 80 83 76 78 83 71 60 46 77 93 97 84 77 96 80 91 86 97 97 96 97 90 96 81 100 100 74 100 96 88 99 99 98 96 74 68 86 97 100 99 71 82 93 64
10 4 20 74 89 91 85 73 56 45 40 40 97 94 59 74 75 72 98 83 97 91 95 95 97 98 100 100 100 100 100 100 100 95 94 98 86 96 82 86 87 100 96 62 52 38 34
10 3 16 77 87 90 78 30 38 40 41 40 82 88 67 62 83 87 97 83 97 90 87 98 100 99 99 98 96 100 100 100 97 99 95 92 91 80 84 63 88 96 96 73 81 67 63
10 3 4 22 65 64 16 20 30 32 25 35 89 96 82 64 90 82 56 96 98 100 63 98 96 97 97 99 99 98 100 95 100 98 96 93 90 80 97 81 89 94 88 92 95 80 54
11 3 3 11 17 25 13 22 29 67 33 61 76 96 89 87 96 98 79 98 99 92 99 99 94 93 93 97 93 97 94 92 96 98 100 99 91 97 84 67 73 99 100 99 87 88 74
12 4 2 4 13 9 13 74 92 100 100 85 80 98 88 73 92 97 96 98 99 94 84 72 98 86 84 88 87 84 82 87 76 83 100 98 96 95 84 78 85 84 94 91 96 70 93
12 4 2 2 4 6 18 79 96 100 100 82 78 83 99 98 70 76 99 96 95 94 84 92 79 77 77 89 87 89 90 86 65 58 95 98 98 90 86 83 83 86 86 87 97 99 95
13 5 3 1 2 6 38 74 81 97 96 77 97 98 92 84 68 70 98 98 94 90 72 59 57 62 56 89 82 92 90 78 71 67 97 99 97 83 67 57 73 95 96 99 98 98 83
14 7 4 1 2 8 37 68 76 83 90 65 76 100 76 67 95 95 95 93 94 92 66 65 63 61 79 87 93 94 96 81 83 82 81 96 96 99 97 96 98 93 91 97 98 94 99
15 9 6 2 1 5 32 63 66 70 84 74 56 63 61 68 97 87 83 100 97 72 73 69 81 73 73 91 97 98 100 100 100 91 97 99 99 98 99 81 92 99 99 99 100 99 100
15 11 8 5 0 2 16 54 64 60 71 74 84 83 93 85 78 86 97 97 84 82 75 69 71 80 86 96 90 93 84 92 95 98 94 100 99 100 90 85 90 92 100 99 96 91 100
19 13 11 9 2 0 6 37 62 59 58 70 78 80 93 79 98 97 89 79 86 87 82 83 82 92 89 88 86 82 79 88 94 90 99 99 100 100 90 84 91 96 94 100 98 98 99
20 15 12 12 7 0 1 9 49 65 69 70 68 73 75 84 73 96 90 72 79 78 82 80 84 84 85 84 84 96 95 94 78 92 99 100 100 99 98 90 77 97 100 99 98 96 92
20 17 13 13 12 4 0 1 19 62 73 74 78 90 73 98 91 89 79 77 99 98 79 82 77 86 90 91 92 94 89 86 92 93 99 100 99 100 99 97 82 92 95 84 100 82 80
19 18 12 12 13 10 2 0 2 39 73 73 86 89 92 83 80 79 78 83 80 89 99 88 83 91 94 95 94 99 95 90 83 83 98 98 100 99 99 97 86 74 79 80 79 70 82
19 18 14 12 11 10 4 1 1 3 68 89 95 99 94 81 74 73 77 75 69 73 93 91 89 89 96 96 90 92 99 97 90 82 89 90 97 98 99 98 87 69 70 78 70 67 77
19 19 15 13 11 9 5 3 2 1 11 89 96 100 100 98 99 82 79 73 84 89 98 92 89 93 88 92 95 93 98 90 95 90 82 92 83 82 86 78 75 76 69 68 64 64 69

GFSGBSN_700_rhum_018.txt.gz
RH
12 13 14 12 10 10 9 9 9 9 8 7 6 5 3 2 2 1 3 63 95 82 100 92 50 39 47 65 85 72 86 78 73 69 46 22 21 32 57 62 77 81 69 68 64 45 65
12 14 15 15 12 10 10 10 19 38 44 56 24 9 4 3 2 2 2 39 100 82 96 93 69 40 44 76 83 97 96 85 76 78 78 80 88 86 88 86 84 85 86 84 62 65 47
12 15 17 15 12 11 9 23 45 99 99 94 78 62 31 7 3 2 2 32 89 93 96 100 84 45 41 67 86 92 99 97 85 90 85 99 99 94 86 91 91 87 84 72 54 34 39
12 16 17 13 11 8 6 52 96 94 97 95 74 84 82 59 22 12 4 4 94 99 96 99 95 50 40 60 62 80 98 97 94 99 92 97 96 98 90 89 92 76 80 73 48 44 43
12 18 15 12 9 7 20 97 96 97 94 86 82 79 73 53 51 46 16 3 38 62 98 99 98 55 45 42 62 76 86 86 100 97 99 99 97 97 100 88 85 83 75 66 63 60 64
15 18 14 11 8 16 84 97 96 89 83 84 82 75 69 68 72 66 64 8 7 24 99 98 99 70 47 38 48 73 83 84 92 91 96 100 99 99 92 97 79 71 72 64 59 60 58
18 16 13 10 19 73 92 88 86 87 87 80 87 80 83 81 74 70 82 50 43 58 99 98 96 73 55 31 40 55 84 83 99 96 100 100 100 97 81 86 80 79 76 67 58 56 59
18 15 12 13 66 98 93 88 88 84 76 80 87 86 77 77 75 80 94 79 100 89 99 99 93 95 54 40 37 48 82 86 98 98 99 100 92 79 86 82 82 83 83 76 65 55 62
16 14 9 14 48 95 82 84 79 73 76 80 88 86 68 83 84 82 76 78 99 98 99 99 95 82 54 48 38 43 76 96 99 98 99 99 84 70 74 90 80 77 84 78 72 70 65
16 12 6 7 39 91 80 74 81 73 74 84 72 68 69 76 80 89 77 72 97 98 99 98 99 84 60 70 54 79 87 100 100 99 97 98 97 92 70 90 85 86 74 73 72 76 71
16 11 6 8 72 87 83 77 76 67 59 52 56 74 93 97 74 89 79 90 97 97 99 98 99 96 64 78 68 83 99 100 98 98 99 94 98 98 83 68 78 81 81 76 78 84 85
16 10 5 6 62 74 87 85 84 49 44 44 55 93 90 97 89 84 78 94 96 97 98 98 98 95 82 95 83 77 99 99 99 99 98 98 93 75 68 68 73 91 91 84 81 87 96
16 10 4 4 38 44 28 31 33 38 38 51 63 99 91 85 80 83 82 89 96 98 96 100 99 86 93 100 98 81 100 90 88 99 100 99 95 72 65 71 75 97 90 88 94 94 88
16 9 4 3 26 20 18 32 27 34 39 47 97 88 68 70 89 60 72 96 96 97 99 100 100 100 100 99 96 97 98 98 99 83 88 87 88 83 75 71 83 95 88 76 77 83 67
16 9 4 2 13 12 16 18 34 70 64 84 99 76 69 83 72 79 45 89 96 98 100 98 100 99 98 98 92 99 98 99 99 92 84 91 88 91 90 79 92 97 96 58 86 68 76
17 9 5 1 4 6 14 62 93 97 98 92 97 82 77 91 84 72 78 88 97 100 97 96 95 94 99 98 94 94 95 92 97 84 88 90 87 84 93 83 83 94 79 91 89 95 81
17 10 6 0 2 8 37 85 95 97 94 89 96 98 88 91 97 73 77 96 98 97 99 98 77 93 87 90 86 89 89 88 94 97 93 95 92 89 95 80 65 84 94 92 94 91 94
18 12 8 1 1 14 64 86 95 97 94 97 92 88 91 98 86 91 89 98 98 98 90 95 88 82 88 90 90 91 84 86 87 99 98 95 87 96 80 71 71 89 88 84 90 75 79
19 14 9 2 1 17 62 81 92 98 81 80 54 87 94 96 98 83 98 90 92 82 87 84 82 81 82 85 84 83 91 85 89 91 96 92 92 98 90 87 84 84 78 84 92 93 95
20 16 11 6 0 10 56 71 82 76 67 74 66 85 62 78 91 90 97 97 96 87 80 58 68 80 85 86 86 88 88 84 70 82 95 92 93 77 77 75 80 93 87 84 94 98 88
21 18 13 10 0 2 42 60 64 75 57 54 64 74 61 53 58 92 94 97 93 86 65 61 78 80 86 88 89 92 97 81 78 71 90 98 99 88 78 66 70 76 71 80 98 92 100
22 20 16 12 6 0 25 53 55 66 59 40 42 41 46 52 81 80 87 94 90 75 86 76 89 91 80 86 96 89 96 96 91 96 91 93 93 96 82 76 78 88 81 91 99 99 99
21 22 18 14 11 2 3 38 51 55 66 69 51 51 61 52 68 86 90 94 90 77 73 68 83 73 97 95 88 90 94 97 97 93 90 97 90 88 91 74 82 89 88 94 99 99 99
21 22 22 17 14 11 2 6 41 49 56 69 64 64 63 81 89 89 94 84 79 82 73 81 92 99 95 86 87 82 81 79 98 98 93 97 87 98 93 78 92 88 78 94 97 81 95
21 21 23 21 17 14 10 2 3 42 52 61 77 76 77 92 100 98 92 76 87 82 74 76 81 84 82 82 77 92 93 97 88 97 99 98 100 98 98 99 70 89 92 97 95 85 98
21 20 22 23 20 17 13 9 2 2 38 52 71 92 92 99 84 100 96 94 74 75 74 70 77 74 85 83 84 90 86 95 99 93 100 100 100 99 98 99 89 85 87 82 89 84 83
21 21 21 22 22 20 15 12 5 2 1 36 56 77 100 96 99 100 100 100 99 100 99 97 82 82 92 87 85 93 87 83 83 96 96 99 100 99 99 98 79 65 76 78 88 70 72
21 22 20 21 21 20 16 12 9 2 2 2 57 78 96 100 100 93 100 100 100 89 99 94 87 88 88 93 95 91 90 96 87 88 89 86 95 96 100 97 89 79 78 79 72 72 70
22 23 20 20 21 22 15 11 7 4 3 5 16 94 100 100 94 92 96 79 87 91 89 100 91 94 90 89 90 91 92 90 90 93 87 84 85 95 81 75 79 80 77 75 69 69 68

GFSGBSN_700_rhum_021.txt.gz
RH
8 9 13 17 16 13 12 11 10 17 66 98 98 90 49 22 9 4 3 2 3 43 98 94 98 93 39 37 37 64 78 57 62 42 36 22 23 42 63 37 48 62 53 62 42 48 56
7 9 15 17 14 13 11 8 16 94 98 97 97 95 87 59 54 11 4 3 2 41 100 95 100 94 48 36 49 66 69 80 81 74 76 47 23 36 55 61 77 72 72 70 64 63 51
7 10 18 16 13 12 6 8 57 100 98 93 94 94 84 71 69 78 32 12 2 13 98 98 98 99 59 38 56 68 99 94 82 86 88 84 80 91 80 79 91 84 85 82 52 28 36
8 15 18 15 12 8 9 31 83 91 94 92 92 82 71 67 63 61 50 32 8 20 98 100 100 98 64 45 42 66 81 87 89 86 94 98 98 88 84 92 80 83 86 76 33 41 36
10 18 17 14 10 7 43 91 91 93 88 84 80 69 74 67 69 64 60 52 19 14 80 98 99 99 71 43 40 64 86 98 88 89 98 92 100 99 98 85 84 75 81 63 61 54 63
13 18 16 13 5 4 29 94 88 84 78 67 66 73 72 70 73 71 64 74 35 7 96 98 99 99 84 44 39 61 86 90 93 97 97 99 100 98 100 96 82 78 74 70 66 64 72
17 18 15 11 4 5 42 89 69 69 69 71 73 75 77 69 72 74 68 83 41 24 99 98 98 97 76 47 44 56 82 88 88 96 96 99 100 98 91 86 85 74 84 78 66 65 64
19 17 14 8 3 12 50 80 74 74 61 64 69 72 65 60 74 76 71 79 90 83 98 98 99 98 65 46 43 61 84 93 98 97 100 99 99 94 100 97 83 78 80 71 61 62 60
19 17 14 6 2 31 46 89 85 68 51 47 48 48 63 98 86 88 84 73 91 98 96 97 98 99 77 48 45 52 71 86 91 100 99 95 86 84 95 98 90 85 82 69 70 52 48
19 17 13 6 4 51 31 28 39 40 42 44 46 61 86 93 95 92 92 70 92 93 98 99 98 100 87 67 59 71 84 92 100 93 100 97 93 88 91 90 89 85 79 76 78 73 66
19 17 12 5 6 43 24 20 26 33 36 41 43 91 93 97 99 94 84 90 93 98 97 98 99 98 92 72 64 99 100 100 97 98 98 88 96 90 94 76 92 90 80 76 74 73 75
19 17 10 3 4 23 20 17 24 28 35 41 44 96 96 95 99 95 68 84 93 96 96 98 100 91 100 92 81 97 100 99 99 98 94 98 90 92 93 86 84 88 84 71 67 74 85
19 17 9 1 2 12 15 26 58 89 96 70 54 88 76 77 99 72 83 58 86 96 97 99 99 90 86 97 90 100 100 98 96 95 100 99 94 86 75 72 80 91 81 85 88 93 88
20 17 10 1 6 15 43 74 93 97 98 93 81 68 93 64 88 66 51 67 96 98 98 99 99 92 93 93 100 98 99 99 89 85 90 88 77 81 73 74 66 78 79 74 91 96 80
20 17 11 1 9 35 62 84 95 96 84 74 64 76 91 90 86 84 98 95 96 97 99 98 98 93 94 91 87 100 99 98 94 80 76 83 85 84 87 82 86 84 91 81 85 76 83
20 18 12 1 10 51 66 94 98 92 82 71 67 82 80 85 96 96 94 96 98 98 97 97 95 92 89 88 85 92 93 88 93 78 84 84 82 89 92 83 93 81 72 85 88 100 95
21 19 13 3 9 49 67 83 66 76 84 77 65 68 72 93 86 84 93 98 98 99 89 80 77 93 86 90 87 88 80 82 89 76 92 88 88 94 95 84 70 82 96 90 86 91 98
21 20 14 6 4 46 57 65 31 36 70 69 55 65 86 66 66 82 97 98 98 98 96 96 86 77 75 85 82 82 81 84 86 87 91 90 86 87 76 67 78 78 68 85 81 72 80
22 21 16 10 1 37 44 61 33 44 48 60 67 44 51 58 69 96 93 94 97 80 85 89 87 83 75 79 82 85 97 90 91 97 94 89 95 89 89 85 90 90 86 86 83 84 89
22 22 19 14 2 20 39 51 26 38 50 58 60 76 72 59 83 80 76 84 84 77 74 78 86 81 84 87 86 96 88 85 95 98 96 88 93 78 79 89 90 92 84 84 90 98 88
22 22 21 16 12 4 34 41 36 43 47 49 45 54 66 77 81 79 72 68 67 68 65 69 82 85 84 84 86 88 82 82 82 92 94 96 95 87 79 67 74 74 74 74 87 81 99
21 23 23 19 15 6 7 39 41 47 42 44 40 49 52 68 88 85 84 73 61 59 55 69 81 86 86 87 84 81 77 79 73 73 88 99 94 86 74 82 81 81 79 79 84 92 99
19 23 23 22 19 16 4 4 38 42 48 53 46 49 65 79 80 81 82 77 70 68 65 63 74 76 84 83 88 91 94 87 89 89 89 92 90 85 80 80 82 82 76 87 91 92 98
19 22 23 24 22 19 16 5 2 23 50 51 57 49 54 72 74 83 97 82 77 73 68 70 64 62 81 87 87 90 89 97 99 98 96 86 83 89 86 80 90 85 78 83 84 82 96
21 21 23 24 25 22 19 16 7 2 6 45 59 65 54 73 86 95 96 91 77 75 78 73 76 81 84 82 79 92 91 98 96 100 99 98 97 96 100 97 76 79 76 83 87 76 80
32 21 23 22 25 26 23 19 17 11 3 1 19 64 70 64 88 100 100 97 82 81 77 69 74 74 80 82 81 88 76 90 99 100 98 100 99 99 98 99 96 76 71 80 84 78 80
48 23 22 21 21 26 26 24 20 17 14 4 2 14 88 74 81 93 100 97 95 91 85 74 75 77 86 87 85 82 78 86 93 95 100 100 100 98 98 97 74 62 83 86 85 72 79
64 29 23 22 20 22 26 26 23 21 17 10 4 4 38 97 74 100 98 94 97 97 94 93 91 86 86 85 88 80 80 96 92 93 94 95 94 94 100 98 84 83 88 88 84 73 69
77 36 24 23 21 20 23 24 22 20 14 9 6 8 6 34 81 100 100 99 99 99 97 90 94 93 87 87 84 84 90 90 89 87 97 95 84 84 77 70 79 83 88 85 82 70 67

GFSGBSN_700_rhum_024.txt.gz
RH
9 8 12 17 16 14 11 7 4 12 37 98 87 96 98 90 88 68 58 17 5 2 7 87 92 99 96 74 31 44 41 42 36 37 29 19 18 19 21 25 31 40 34 34 24 24 32
9 9 16 17 15 13 8 4 39 59 79 84 93 90 85 80 72 81 71 61 28 4 3 83 94 99 85 80 36 55 78 63 53 39 36 27 21 26 29 30 44 66 44 45 41 36 31
8 11 18 16 15 11 4 11 28 88 82 83 78 79 78 67 65 69 59 59 58 11 2 24 100 99 91 84 42 66 81 88 89 86 71 47 29 54 42 52 61 67 78 70 43 32 37
9 15 18 16 14 8 3 15 57 69 69 70 73 63 64 69 69 65 63 52 43 24 4 32 99 98 98 84 48 65 82 86 83 86 89 69 44 50 48 81 86 79 87 86 45 42 36
11 18 18 16 12 6 4 28 54 59 67 66 58 57 72 68 60 65 70 57 58 23 6 60 98 99 94 84 41 69 90 94 85 86 91 92 95 80 83 78 85 83 86 76 51 45 44
12 19 18 16 9 4 23 57 92 97 73 89 63 68 86 82 63 67 63 62 66 22 10 55 98 99 80 82 44 73 85 90 91 84 100 100 97 100 96 96 82 72 72 68 68 61 66
14 20 18 14 9 24 53 46 84 100 99 63 53 71 70 84 82 63 66 62 70 24 40 99 98 98 77 89 44 75 100 97 99 100 95 98 100 100 99 97 89 81 77 84 68 70 72
16 20 18 12 6 14 47 29 34 69 71 65 42 47 56 58 94 87 73 72 76 57 46 95 98 97 80 77 42 64 90 93 91 100 98 98 99 99 100 99 100 97 89 82 72 69 74
19 19 18 10 3 13 37 24 20 69 60 34 39 44 59 84 89 94 81 78 76 78 89 97 98 100 85 56 47 74 83 98 94 100 99 99 93 99 98 98 92 89 86 78 75 65 64
20 19 17 11 2 11 27 21 32 66 35 36 48 83 90 90 88 96 77 71 83 62 95 99 99 99 89 59 65 74 92 94 100 100 97 98 97 87 91 96 96 93 84 81 79 67 68
21 19 16 10 1 20 45 64 87 98 100 97 96 97 86 93 100 99 75 68 93 65 96 99 98 99 90 70 64 91 100 100 99 97 96 94 95 90 86 91 100 94 84 74 72 76 76
21 20 16 7 6 46 64 87 99 98 100 96 96 95 93 91 96 98 79 64 83 96 96 98 98 99 95 77 88 99 99 94 97 96 93 94 92 95 86 84 86 92 81 69 71 72 80
22 20 16 5 15 52 82 92 97 95 88 80 79 90 87 78 95 57 64 73 89 96 98 99 98 99 91 96 100 98 98 92 92 96 99 100 97 91 87 91 87 83 77 66 82 97 80
22 20 16 4 26 55 57 36 72 82 77 64 75 82 72 77 76 74 55 71 91 98 98 96 97 100 93 95 99 100 97 90 89 88 92 98 96 88 82 74 68 67 77 57 70 96 85
22 21 16 4 34 46 20 34 58 62 65 63 75 70 66 81 99 79 69 82 96 98 99 98 99 93 100 100 98 98 95 91 96 82 83 87 84 89 85 78 75 79 88 76 82 88 90
21 21 17 4 35 26 15 13 26 32 52 58 57 78 61 62 71 80 89 98 99 90 85 93 90 97 96 90 92 90 92 96 94 80 69 77 85 90 86 81 90 79 77 88 83 98 91
20 22 19 7 32 22 23 19 22 29 31 48 50 49 56 71 82 92 96 98 98 98 95 92 81 86 82 81 79 93 76 83 76 75 76 88 80 89 92 84 76 91 94 76 72 77 98
19 22 21 12 22 24 31 35 37 34 37 41 42 52 58 76 90 96 98 100 96 94 77 79 77 70 75 83 74 77 77 81 79 79 83 87 82 85 70 77 85 87 82 74 70 72 92
19 23 22 16 4 30 28 35 41 40 39 37 37 46 65 67 73 81 89 92 95 90 84 87 87 78 78 81 75 82 90 86 83 88 83 86 82 83 84 81 79 88 77 88 85 83 92
22 21 22 20 13 15 27 33 42 50 44 45 40 57 75 72 70 73 75 76 77 82 82 65 70 78 83 90 82 93 92 91 95 95 88 81 80 73 80 84 87 89 82 84 87 94 87
39 20 23 23 18 11 20 30 31 43 47 47 48 51 60 77 75 71 68 65 74 87 83 83 80 84 87 84 87 91 91 86 95 94 90 92 84 85 81 81 86 80 81 83 88 79 96
54 23 22 23 23 17 10 11 38 41 34 38 38 52 51 68 71 73 69 63 64 72 69 84 84 84 86 86 78 81 82 83 86 97 97 96 92 87 73 80 79 79 75 79 78 78 86
93 35 21 22 24 23 18 13 3 24 41 46 45 43 56 59 66 69 71 63 62 65 72 82 82 81 82 77 78 78 80 75 78 72 84 92 92 88 79 84 80 79 70 74 79 85 89
94 62 22 22 23 24 23 20 15 6 7 38 51 52 51 63 69 77 76 79 75 74 67 65 69 74 81 83 90 93 94 97 97 98 94 82 84 81 84 79 92 81 73 84 86 84 84
95 92 35 20 23 24 25 25 21 18 14 4 21 54 58 57 73 84 86 88 80 77 70 77 82 75 86 87 91 92 98 98 98 99 98 92 96 93 99 100 72 62 74 80 88 68 71
96 95 71 22 21 23 25 26 26 23 20 17 12 3 37 60 67 83 88 96 92 76 78 74 77 84 84 83 86 89 83 85 88 96 100 96 97 99 99 98 95 80 72 83 90 74 76
98 96 85 28 21 21 23 26 27 26 24 22 19 13 6 4 58 82 94 94 92 91 82 75 73 74 78 85 85 86 81 91 97 92 96 99 99 99 99 96 72 64 87 89 83 82 85
96 96 94 34 23 23 22 22 26 29 28 25 22 16 11 7 7 87 98 100 95 90 95 84 78 76 80 90 92 84 86 91 94 94 90 90 99 96 100 99 84 80 87 91 88 84 76
96 96 96 65 30 25 24 21 22 27 28 27 23 16 13 10 8 20 99 100 93 99 98 90 93 88 86 87 85 85 87 95 92 90 93 97 84 83 77 72 76 87 88 86 90 79 73

GFSGBSN_700_rhum_027.txt.gz
RH
15 14 13 17 18 16 13 10 4 24 21 64 91 84 76 75 68 71 86 73 68 62 10 2 46 94 99 95 76 47 35 27 32 38 25 23 19 20 19 20 25 34 34 23 21 20 26
16 14 14 19 18 16 12 8 5 16 54 62 90 82 68 65 63 61 67 63 61 61 34 4 23 99 99 93 88 46 63 48 40 50 35 28 22 22 24 23 28 38 31 30 24 20 22
18 16 16 20 18 14 10 14 33 54 50 73 91 90 58 51 66 64 68 57 55 50 49 6 4 92 99 98 86 49 74 66 55 58 48 29 24 38 36 32 40 45 47 31 26 25 27
19 17 19 19 18 13 18 28 97 97 100 70 77 68 68 77 67 59 62 63 58 47 45 8 27 99 98 99 90 50 88 85 82 68 46 37 34 62 52 60 63 59 60 69 36 28 26
20 16 20 19 16 11 19 54 98 100 100 96 95 94 94 85 74 67 58 59 57 56 35 8 50 100 98 98 96 52 92 96 98 99 89 45 51 68 62 87 95 90 81 67 36 40 46
19 16 21 19 14 5 26 65 93 100 99 94 94 96 82 66 85 86 65 63 57 55 31 8 99 99 96 99 96 61 72 96 92 98 97 72 80 82 84 91 89 92 77 62 60 53 66
19 18 21 18 13 3 26 59 100 87 83 94 96 51 51 47 56 76 89 77 58 55 27 30 98 97 92 98 71 74 79 95 89 99 94 97 100 91 78 66 60 72 74 68 65 58 60
20 19 21 17 7 14 39 62 90 98 95 92 59 42 44 56 65 87 92 82 72 75 19 75 99 99 98 100 62 90 85 98 99 94 94 100 100 100 100 95 91 89 83 76 73 73 78
22 21 21 15 3 41 68 82 95 96 95 97 96 87 71 80 75 91 88 83 76 54 58 94 97 89 98 99 59 100 100 96 93 98 100 99 100 99 99 99 96 98 84 88 84 72 71
24 22 20 13 14 51 51 68 85 93 90 87 89 97 85 80 79 100 96 73 69 69 68 98 98 99 99 91 56 81 100 99 100 99 100 93 97 94 97 100 97 89 84 82 80 77 73
27 22 20 8 34 41 24 42 72 83 77 72 76 78 86 82 84 88 90 69 87 89 95 97 99 95 84 80 58 82 99 100 98 99 99 99 97 94 98 97 92 92 87 86 79 68 67
29 22 19 5 39 18 28 40 44 89 72 71 65 66 70 65 72 87 69 69 79 92 97 98 99 99 84 76 76 96 99 100 99 98 97 92 97 96 92 90 97 96 94 85 73 61 78
28 23 18 6 40 16 12 17 28 67 68 42 60 65 65 56 48 56 58 63 93 96 96 99 99 97 81 98 92 100 98 98 97 98 98 99 99 98 98 92 90 99 92 60 63 87 75
38 23 18 8 34 19 11 17 28 36 50 30 45 88 62 46 54 61 53 78 93 100 99 99 99 94 98 100 96 98 94 87 93 86 98 95 98 93 91 92 82 87 82 53 54 86 82
60 24 18 9 30 21 15 25 29 40 46 30 36 50 49 57 60 57 62 88 97 97 98 98 96 89 99 97 96 98 89 84 85 89 84 91 86 90 93 84 79 78 84 71 69 92 91
80 23 20 11 28 25 20 23 25 38 49 53 50 60 68 65 71 80 77 100 99 99 100 88 88 93 91 93 93 99 90 83 80 88 80 84 81 88 92 88 90 82 68 77 68 70 85
81 25 23 15 17 30 27 30 34 37 46 52 57 64 65 71 81 90 98 99 100 100 90 81 76 84 91 90 90 91 77 78 88 89 81 76 72 91 96 90 84 88 89 76 70 74 89
59 63 22 20 9 28 33 35 38 41 43 50 61 69 69 77 74 88 100 100 93 94 80 71 70 66 68 74 76 79 81 80 78 89 88 84 81 81 82 90 91 92 75 70 62 76 94
44 88 25 22 17 9 32 34 36 40 45 51 59 67 70 63 74 81 89 84 80 77 73 71 71 72 68 63 63 77 70 68 83 75 87 86 74 78 87 86 90 88 78 81 85 78 83
43 89 68 22 22 17 8 33 37 40 43 47 56 60 65 72 81 79 82 86 93 88 77 81 80 79 74 77 73 76 88 87 84 86 84 80 75 76 78 80 77 80 73 79 93 89 78
40 73 90 21 22 22 18 7 34 32 35 36 40 49 60 63 72 72 75 82 84 80 70 74 82 71 84 92 80 82 87 87 92 95 89 88 85 84 80 81 85 81 82 81 81 74 85
40 45 95 37 21 23 23 18 5 25 39 37 31 43 66 68 69 66 71 78 82 81 81 70 82 89 86 80 82 77 82 82 89 93 93 91 90 89 71 66 67 69 64 69 77 82 82
42 41 83 80 22 22 23 24 18 7 10 36 41 31 41 60 71 78 71 71 74 74 83 78 83 84 92 86 76 84 84 85 83 76 87 96 96 86 78 88 88 78 65 66 65 69 73
72 34 77 96 44 21 22 23 25 20 14 5 34 46 38 44 54 68 77 77 77 80 77 84 83 90 87 86 83 89 88 86 89 87 88 88 91 89 84 81 96 80 77 81 83 82 86
40 40 88 95 96 33 22 20 25 26 24 20 12 14 46 48 40 55 66 79 83 83 78 78 80 80 88 91 94 97 99 97 94 95 95 90 95 89 92 97 79 60 75 79 81 72 77
73 88 94 95 97 89 22 23 23 26 27 27 24 20 13 8 45 55 68 65 68 77 81 82 84 88 89 92 96 92 86 82 86 84 94 92 94 98 100 100 97 86 77 80 84 80 84
87 93 95 96 96 92 26 23 24 25 26 27 28 26 24 19 12 26 69 84 76 67 75 79 84 89 89 90 88 85 81 83 93 84 88 95 100 99 97 96 72 66 74 88 86 83 88
93 94 95 97 96 91 60 32 24 24 24 27 28 29 28 25 21 15 28 82 94 80 79 81 85 86 84 85 91 84 80 86 96 89 88 79 87 93 100 98 86 68 88 92 88 86 89
97 96 97 97 97 96 89 72 55 46 27 25 27 30 29 28 25 23 14 20 88 98 98 100 99 82 74 86 88 90 83 86 90 96 92 97 83 87 80 71 77 96 89 86 89 92 81

GFSGBSN_700_rhum_030.txt.gz
RH
26 24 22 19 21 20 17 14 10 30 62 99 84 95 95 92 67 74 70 62 60 70 79 63 13 40 100 99 98 74 56 31 27 24 24 23 20 22 30 38 50 51 51 42 34 32 30
29 25 23 21 22 19 16 13 40 91 99 99 90 97 95 98 71 59 66 61 64 63 59 61 25 28 99 100 90 88 60 33 27 24 25 24 22 24 30 29 34 54 56 38 30 29 26
33 26 22 22 20 16 10 32 68 73 97 98 91 95 88 79 85 73 71 55 62 59 54 54 30 22 98 100 98 96 58 49 31 29 33 26 26 31 36 37 34 47 40 30 23 22 25
38 31 23 22 19 12 8 50 75 87 97 92 88 90 94 90 94 82 74 59 60 60 52 50 29 12 96 91 84 88 54 79 56 56 70 39 34 49 53 54 53 46 48 40 27 21 23
53 34 22 22 17 5 37 61 78 100 96 94 93 95 87 95 73 85 84 83 60 56 59 48 22 66 97 66 90 78 83 84 80 95 91 66 49 59 66 69 82 77 68 48 37 31 33
57 30 23 20 8 20 41 35 56 94 96 99 98 92 66 48 48 60 62 87 68 56 60 50 17 100 99 68 96 72 99 89 94 93 74 79 59 71 80 98 87 90 83 52 43 37 37
53 31 24 18 6 33 12 18 43 97 98 97 99 98 68 44 48 54 82 94 76 58 61 31 26 98 97 98 98 79 99 100 99 98 79 72 94 81 84 94 83 83 79 67 49 53 53
67 33 23 13 16 20 7 21 48 90 85 82 87 89 96 81 72 78 86 94 77 73 46 96 56 95 82 85 94 73 96 99 92 98 97 89 97 80 82 72 71 84 79 69 66 69 74
70 33 22 10 29 11 12 19 30 80 79 76 82 82 87 90 85 86 91 70 67 42 43 98 86 99 100 100 99 80 80 95 98 97 99 99 94 94 86 88 97 84 76 74 72 78 76
68 30 21 10 29 11 18 30 20 68 75 73 72 73 91 88 89 88 75 61 52 62 76 98 98 99 99 96 98 93 95 96 99 99 100 97 100 94 98 99 99 89 80 82 82 81 75
68 34 21 11 22 12 24 37 22 25 61 51 64 78 71 87 80 84 58 44 57 63 94 97 99 98 98 89 82 100 99 83 86 89 99 100 99 99 99 99 99 99 89 87 86 81 74
70 42 22 13 19 17 21 38 29 43 61 40 43 52 51 64 72 43 37 91 82 85 96 98 99 95 95 87 67 99 99 99 99 96 98 99 100 98 99 98 98 98 89 93 89 79 71
57 62 23 13 20 19 27 40 35 42 55 66 59 66 56 37 42 44 72 70 69 91 99 98 98 92 80 91 60 94 97 91 98 99 99 100 100 96 94 99 98 98 95 78 63 73 72
53 76 28 17 22 21 22 30 48 40 52 62 62 65 57 27 35 50 69 82 87 98 98 99 98 89 93 99 100 99 97 99 94 90 93 94 99 98 95 87 82 96 93 61 54 76 74
62 71 54 23 21 23 25 28 44 52 57 62 70 76 78 66 48 54 70 93 98 98 99 95 91 89 91 94 94 92 94 89 91 87 72 82 86 98 88 93 92 93 93 78 64 82 85
56 57 73 25 14 23 27 34 40 48 52 61 70 75 62 48 36 43 63 100 97 94 99 92 85 96 98 99 91 93 89 82 79 84 79 80 83 90 94 94 91 80 74 77 62 68 70
58 50 81 42 22 18 28 34 40 45 51 56 64 76 68 58 64 70 91 93 97 92 82 76 67 78 69 76 80 79 84 78 79 81 84 78 76 98 98 93 87 90 86 68 63 64 82
65 53 71 82 22 17 19 29 36 42 51 55 61 67 79 84 79 88 98 100 89 85 76 68 66 67 73 84 80 75 85 73 78 79 85 75 74 82 88 88 87 88 82 71 58 72 88
79 61 49 83 49 23 15 21 31 36 42 52 54 64 66 73 90 100 100 100 99 88 79 71 69 70 68 74 76 73 79 76 73 82 90 81 76 80 95 93 93 93 83 83 71 68 76
81 68 51 54 93 22 23 14 20 31 36 42 49 54 65 69 84 94 95 94 91 89 83 86 78 73 71 71 62 71 71 68 69 79 92 88 79 70 74 78 77 84 73 78 83 88 76
87 70 65 55 66 76 22 23 15 9 32 30 31 43 51 57 65 70 76 92 93 82 85 82 88 80 72 73 76 70 79 85 86 86 89 93 86 77 75 77 82 79 83 80 80 71 73
89 72 70 73 58 97 33 23 23 17 5 31 39 36 48 61 62 64 71 83 88 81 82 72 77 80 87 87 76 77 69 82 83 93 94 96 88 88 75 70 72 73 70 81 82 78 76
91 74 69 72 52 91 81 22 24 23 18 6 28 42 38 50 65 64 61 63 72 75 79 83 85 90 90 87 83 78 87 87 88 83 90 96 96 88 78 87 89 77 69 68 59 54 57
94 55 60 60 72 84 96 25 21 26 25 20 9 21 48 44 56 66 70 64 64 71 80 83 86 88 87 87 84 87 90 87 94 88 91 94 94 94 82 75 95 72 82 82 79 81 79
87 74 70 79 89 94 96 59 21 22 25 27 24 17 13 40 51 54 68 74 73 68 74 82 86 84 90 96 94 97 91 94 90 90 90 93 99 87 84 88 76 62 78 77 80 83 79
89 65 82 88 98 97 95 96 36 19 19 22 27 28 25 20 12 22 57 75 81 81 76 75 80 86 91 100 99 97 89 87 88 89 92 96 94 94 94 99 96 88 84 76 88 94 90
80 89 91 92 97 98 95 96 92 29 25 20 21 23 26 29 27 20 12 66 85 86 80 77 80 84 93 100 98 95 85 81 87 85 92 93 99 98 100 96 68 65 85 95 94 91 87
98 95 93 94 96 96 97 96 95 94 77 59 48 34 28 27 29 29 28 18 51 92 93 80 82 89 93 98 98 90 82 80 92 83 80 79 86 100 100 99 84 65 73 94 95 90 85
93 96 96 96 96 96 96 97 96 95 83 72 78 69 46 36 36 34 32 29 18 76 100 100 94 77 84 84 80 85 83 87 87 94 88 88 76 79 71 70 75 85 97 97 96 88 88

GFSGBSN_700_rhum_033.txt.gz
RH
58 59 42 31 28 21 11 16 43 63 82 93 90 93 98 91 94 96 89 74 65 50 52 54 77 62 12 84 98 95 99 89 40 28 25 38 21 22 29 46 57 60 52 48 43 42 38
37 61 43 30 26 16 12 29 28 71 86 83 91 99 97 94 93 90 65 72 59 47 55 62 69 60 21 75 97 97 99 87 42 29 26 43 25 27 38 45 60 62 57 43 39 39 39
31 61 37 29 22 9 20 10 15 41 74 77 84 96 94 96 96 76 88 81 55 53 60 64 74 91 23 64 95 99 95 86 40 29 25 42 52 29 27 40 50 74 65 54 37 38 40
31 63 36 25 13 19 10 16 24 49 70 78 83 88 90 95 92 75 78 82 77 54 57 52 52 67 19 72 99 98 91 76 53 37 33 36 79 50 45 46 41 57 70 44 30 29 31
37 66 35 22 12 12 18 22 29 76 91 91 83 87 94 82 61 66 78 64 74 67 55 67 78 72 30 70 84 99 89 94 66 59 57 59 80 73 69 57 69 62 65 47 39 28 30
43 61 31 19 17 13 26 28 26 97 88 85 78 78 83 95 42 45 52 64 88 80 59 65 59 53 25 43 64 88 77 99 66 68 91 92 73 74 78 68 81 80 75 41 30 28 25
45 55 27 16 18 16 32 29 26 94 88 86 82 76 84 84 73 65 68 83 90 72 73 55 48 91 70 49 70 78 69 99 96 95 97 99 86 77 87 83 66 54 44 40 33 40 49
49 65 29 15 19 17 33 30 38 38 91 78 60 70 81 84 91 88 85 92 76 74 57 50 92 98 100 63 76 88 95 96 99 99 98 98 91 69 81 98 77 76 67 62 57 54 59
51 69 34 16 20 22 30 35 43 34 34 45 56 70 76 76 93 91 92 73 66 56 94 48 91 99 95 84 92 92 98 98 99 98 98 89 88 82 82 95 91 88 73 60 71 72 72
50 70 47 18 22 24 36 37 43 44 36 26 41 62 76 80 86 80 55 49 50 93 92 46 89 99 98 93 99 98 98 99 98 99 98 98 97 93 89 82 75 76 78 83 81 80 72
55 59 69 24 19 22 28 42 40 47 19 18 23 45 67 66 56 36 24 49 83 86 95 97 98 99 99 98 95 89 99 89 91 99 98 99 100 99 100 99 92 89 89 89 83 82 79
62 61 72 39 16 23 23 40 44 51 38 18 13 13 22 19 38 45 68 90 87 77 97 98 100 99 98 98 100 96 94 84 91 97 99 99 99 100 98 100 100 98 95 92 89 87 74
56 59 64 62 19 22 27 34 48 55 42 39 19 16 36 38 42 55 71 75 76 91 97 98 99 98 86 92 99 98 99 99 98 98 98 99 100 100 98 98 99 99 95 86 65 75 73
62 65 59 75 24 18 24 35 43 52 56 37 35 38 46 52 54 64 73 67 82 100 99 97 95 94 90 95 99 99 99 95 100 92 94 95 99 97 100 96 89 99 91 73 61 57 58
67 64 63 60 53 19 22 34 38 45 55 56 29 32 47 46 54 67 66 61 96 100 97 93 85 72 90 78 70 84 85 92 89 93 84 92 98 96 100 95 89 98 95 76 61 76 72
61 73 70 59 85 23 16 28 33 44 53 58 62 36 29 42 39 45 52 100 99 86 92 83 79 82 79 81 82 85 78 87 86 81 73 75 93 98 96 97 92 81 84 80 68 72 60
80 83 79 66 74 70 22 15 29 35 46 57 62 58 58 57 55 59 82 100 100 100 92 78 70 82 86 85 86 87 89 79 84 76 75 76 75 100 100 98 91 85 78 65 60 56 66
85 87 82 80 62 71 42 20 17 30 35 51 53 57 63 70 81 78 94 96 98 91 83 69 70 73 71 80 79 82 83 68 80 82 77 77 76 96 100 92 91 90 87 78 55 67 72
90 91 83 81 78 66 89 24 18 21 32 45 50 58 59 61 81 98 98 99 95 85 78 73 70 68 70 72 78 81 86 83 79 86 81 76 73 83 99 90 90 89 81 80 70 57 61
88 87 85 81 74 71 70 64 22 14 22 32 34 44 55 62 61 69 80 88 86 83 82 78 77 71 70 72 70 71 77 81 78 78 87 85 75 59 62 68 73 81 73 77 79 76 66
88 89 85 84 77 72 69 81 27 22 12 17 28 31 38 54 61 68 68 74 82 76 76 83 88 83 77 70 67 62 70 75 70 66 79 89 82 76 68 70 74 75 76 73 75 70 72
93 98 96 90 77 75 72 67 66 23 21 9 18 37 35 49 64 64 66 78 79 79 75 70 81 84 81 78 76 83 64 67 73 78 82 95 85 81 76 72 74 73 72 77 75 74 71
99 100 98 90 81 76 78 77 89 21 25 21 8 17 42 40 51 68 68 68 73 70 74 70 77 86 88 85 85 84 86 85 85 82 85 90 88 89 77 81 86 81 59 57 56 55 55
100 99 94 88 75 78 82 97 88 31 22 26 23 14 15 44 46 67 74 73 68 71 77 82 85 83 81 84 81 88 93 94 93 90 93 91 96 93 87 78 95 73 84 85 84 77 71
100 98 92 81 82 88 88 97 92 82 26 22 26 26 22 15 37 56 64 73 78 72 75 78 82 83 86 94 92 94 87 91 91 92 89 93 96 89 84 85 69 65 69 79 84 90 86
95 91 90 86 89 95 94 94 97 56 87 25 20 24 27 26 24 15 24 55 71 85 82 78 80 87 84 96 95 90 90 88 92 86 87 92 95 99 95 98 95 91 82 85 93 94 91
97 97 95 91 94 100 97 95 95 97 71 64 27 22 23 24 26 29 24 18 50 78 89 88 83 86 93 94 98 90 91 85 85 92 100 100 100 97 96 96 70 67 88 84 96 97 93
96 97 95 95 98 98 98 96 96 95 95 96 84 78 55 52 55 47 39 32 27 32 100 99 94 96 96 100 96 87 89 83 84 87 81 85 90 100 100 90 87 60 72 86 96 96 93
97 97 94 96 97 97 96 96 98 98 93 93 95 96 94 81 64 44 71 70 37 30 28 98 100 86 91 98 92 89 82 83 81 90 87 89 76 80 72 71 72 82 89 95 93 96 92

GFSGBSN_700_rhum_036.txt.gz
RH
53 44 64 44 28 13 16 13 26 25 41 56 74 84 85 83 88 90 87 94 89 70 55 52 58 40 56 50 29 68 95 90 91 53 28 26 26 65 88 53 52 54 60 46 42 35 33
49 52 61 37 14 16 13 23 29 28 73 88 82 80 82 81 87 92 81 84 68 64 49 62 74 57 49 47 22 90 99 88 96 57 29 46 26 60 100 84 61 62 74 52 47 43 38
63 53 53 27 13 18 16 32 28 44 94 87 91 86 89 84 90 89 74 85 78 62 58 62 56 51 58 45 29 98 99 100 92 51 33 62 36 53 75 91 79 76 71 60 50 48 50
56 56 48 24 16 17 21 32 35 62 83 84 85 88 83 91 92 86 80 76 73 68 65 60 52 68 63 57 30 72 98 100 94 49 36 70 73 61 83 76 64 88 76 79 44 49 52
55 57 57 22 18 18 22 34 37 39 89 77 80 77 81 88 87 42 69 76 60 68 71 59 65 68 65 30 40 95 99 99 78 47 54 81 86 75 66 72 90 84 60 63 65 37 49
58 53 66 23 19 21 35 34 40 22 31 36 53 73 72 88 76 42 51 65 73 79 74 57 65 62 58 37 94 98 99 95 56 67 78 92 83 83 93 77 54 64 59 71 59 44 30
60 53 69 30 17 22 31 34 29 8 22 28 57 73 78 80 79 64 65 74 85 78 62 54 56 100 52 55 96 98 97 99 83 82 89 97 94 91 93 82 69 75 69 63 35 51 34
61 59 63 46 16 24 27 37 20 8 17 15 64 60 66 75 87 88 90 92 64 58 53 57 98 99 68 75 88 95 98 98 88 88 93 99 99 95 99 94 77 76 65 65 52 49 47
68 61 61 61 18 25 25 38 20 7 8 9 32 60 62 70 78 63 56 52 50 52 78 95 97 99 64 67 66 94 99 97 84 87 96 97 98 99 96 88 88 88 75 65 70 57 62
79 66 64 68 28 20 29 40 33 8 6 8 11 20 20 31 39 48 64 77 82 86 94 97 98 98 82 96 92 96 87 99 99 99 98 99 92 86 94 93 84 87 74 65 67 75 56
87 70 67 61 57 17 28 36 44 12 10 9 9 10 17 38 63 79 77 85 84 90 88 97 100 99 99 82 84 82 94 98 98 97 99 97 86 93 94 92 93 80 62 82 85 80 74
87 73 66 67 72 19 24 35 43 35 20 25 32 23 30 51 63 72 72 73 75 82 95 99 99 85 90 98 96 98 98 98 99 99 98 97 98 99 100 98 96 92 89 90 87 82 80
90 75 72 72 66 32 18 31 39 45 39 24 39 42 50 53 56 62 64 64 79 93 98 99 98 97 98 100 98 99 98 99 94 98 98 99 99 99 100 100 98 99 94 88 84 91 64
93 78 81 78 62 72 19 22 31 42 48 50 25 38 42 48 58 62 63 65 88 100 100 93 96 92 98 98 99 98 99 92 96 90 97 97 98 98 98 99 98 97 98 70 62 50 42
82 85 86 81 75 68 47 16 27 32 47 50 52 38 26 31 38 44 48 54 91 95 99 100 92 74 93 85 94 98 89 90 93 82 84 90 100 100 98 97 98 98 97 72 53 54 60
87 82 88 83 81 72 71 28 14 27 32 46 50 51 51 54 39 52 50 71 97 92 86 86 78 77 95 84 76 87 86 86 84 78 69 74 98 98 98 98 98 92 83 78 69 71 53
90 84 84 83 76 74 70 76 22 16 28 33 47 50 43 48 43 57 63 92 96 94 88 78 73 74 63 76 74 74 79 83 82 80 66 66 74 97 96 98 96 82 91 73 71 56 43
90 90 86 85 81 75 73 71 61 17 24 33 44 52 49 44 51 56 98 98 98 90 80 70 71 72 68 67 76 80 87 73 85 81 80 74 73 98 100 88 92 91 83 68 57 73 70
97 92 88 85 81 79 73 71 75 34 12 29 37 43 54 52 54 64 70 85 93 85 75 72 71 69 71 73 77 86 84 74 78 78 73 73 72 97 99 92 89 94 87 83 73 58 63
95 92 92 88 79 81 75 71 69 72 22 13 29 31 44 55 53 53 59 64 66 65 64 66 70 70 70 76 67 76 79 87 81 73 82 80 66 57 56 62 67 82 71 78 81 72 67
92 88 90 91 89 83 78 74 68 78 27 18 12 29 30 48 61 62 63 67 76 72 64 77 82 77 72 70 69 66 71 77 78 75 73 83 81 70 62 62 69 72 71 69 78 71 66
78 95 96 86 82 79 78 73 73 79 24 23 14 14 37 33 57 61 63 71 74 76 69 68 78 77 73 74 68 79 66 72 70 71 78 87 84 76 70 64 69 67 66 71 70 72 68
97 95 88 86 86 78 77 78 83 91 26 25 22 10 16 45 39 60 65 64 72 68 71 66 78 83 85 76 75 76 83 77 82 80 81 93 92 80 84 77 77 67 50 53 53 55 55
88 90 87 80 79 80 82 81 94 88 45 20 26 23 14 24 48 55 67 68 69 67 71 79 83 85 81 85 76 80 76 86 90 89 89 88 86 88 94 80 83 57 81 80 73 66 55
76 78 76 78 78 76 84 88 96 90 86 43 22 24 26 19 27 58 67 76 77 72 71 82 83 86 90 90 88 93 92 91 89 89 87 85 91 90 97 83 70 60 79 78 86 85 73
67 74 79 76 79 78 88 92 94 96 67 94 86 71 22 26 28 19 28 54 70 78 79 75 83 90 92 97 90 91 94 89 93 86 86 84 90 95 99 92 71 78 73 81 92 98 93
80 75 81 85 82 83 90 91 93 94 95 92 94 92 69 24 24 26 28 23 25 63 78 84 84 88 96 95 96 89 91 86 96 96 97 96 98 98 95 85 82 77 90 89 97 96 91
87 85 89 85 84 86 87 92 93 92 92 94 96 95 95 92 48 41 35 34 29 24 52 92 98 96 100 100 96 84 90 88 84 83 86 93 96 98 99 96 84 62 88 92 95 95 96
85 88 86 82 78 84 93 91 95 94 91 88 92 93 92 89 90 86 62 55 46 38 30 51 99 88 94 100 94 93 87 85 85 96 81 94 72 84 75 78 65 72 69 78 90 98 98

GFSGBSN_700_rhum_039.txt.gz
RH
64 63 59 56 29 16 18 27 31 28 40 91 92 96 96 89 85 75 75 84 87 90 92 89 88 71 50 58 53 64 49 96 94 99 53 55 46 56 93 91 83 67 67 66 66 65 58
76 63 58 59 24 18 24 34 27 18 81 89 76 72 84 89 87 80 80 84 91 83 65 52 41 59 37 34 72 76 63 82 92 99 53 66 59 77 97 97 82 90 77 79 70 61 50
85 64 56 64 24 19 29 32 15 8 86 77 59 76 78 85 87 82 83 81 86 73 55 44 46 46 42 41 68 43 100 70 94 88 62 93 96 100 98 93 95 96 78 85 75 58 58
89 64 58 66 25 22 27 31 9 8 85 26 67 77 78 79 86 83 69 76 74 63 60 56 55 47 43 46 44 54 99 81 100 99 89 76 99 99 98 96 96 96 86 77 63 54 60
90 66 62 66 29 22 27 29 7 8 30 26 62 76 72 78 80 59 48 69 52 56 62 64 58 67 62 50 42 51 98 99 95 99 78 57 95 98 99 97 96 84 65 67 64 38 62
89 78 62 64 38 23 30 27 7 7 9 22 44 56 61 72 76 42 51 64 58 73 72 75 73 70 55 55 47 63 98 99 100 97 63 98 99 98 96 77 63 59 65 49 52 59 49
88 84 68 63 58 22 34 32 8 9 17 21 21 40 59 77 87 82 77 68 77 83 74 98 100 81 79 84 66 95 94 100 100 81 63 99 98 93 81 66 51 44 56 42 47 52 51
94 88 71 66 67 20 34 40 10 9 24 36 42 39 31 34 46 58 77 84 64 66 76 63 92 93 99 91 91 98 82 99 96 93 97 98 94 90 77 65 57 63 51 51 57 60 47
96 88 71 68 62 21 33 40 17 14 14 36 40 51 63 68 66 37 35 41 47 71 96 96 88 89 80 95 98 98 99 94 88 98 99 92 91 98 94 78 73 60 58 54 62 68 53
95 90 71 73 65 44 27 39 36 21 25 19 34 37 54 62 70 74 66 88 92 96 97 98 86 96 96 97 98 98 95 98 100 98 100 96 92 95 89 90 66 57 65 72 83 71 42
97 89 81 76 66 75 18 35 39 43 27 35 27 36 44 54 64 79 80 81 80 100 93 98 98 94 98 91 97 97 94 99 100 99 98 99 97 98 85 82 70 70 73 85 77 76 74
99 87 80 78 76 71 46 19 36 44 54 32 38 45 48 52 58 71 72 74 82 92 95 93 100 96 91 92 83 88 99 91 98 99 99 99 99 99 89 87 77 82 74 78 84 79 75
94 81 78 78 77 74 72 26 24 37 50 58 51 33 35 31 42 49 63 68 88 91 96 96 98 99 94 96 98 98 98 98 98 98 98 99 99 99 89 89 99 85 79 77 80 91 60
81 79 81 79 76 76 72 72 19 29 34 51 54 53 43 37 32 43 52 63 86 98 100 98 99 99 99 100 99 99 99 98 99 97 98 98 98 99 98 97 90 90 80 74 63 59 49
77 83 84 77 74 69 66 68 63 16 29 35 44 54 60 55 38 45 47 60 95 90 95 99 96 99 98 99 91 97 99 98 98 98 98 98 98 98 98 97 93 99 99 83 57 40 46
80 76 85 80 75 67 64 65 68 40 14 30 45 46 51 50 38 44 41 72 96 93 88 91 82 87 81 91 93 94 87 91 89 79 84 86 96 98 98 98 99 94 97 90 69 76 45
71 73 87 82 77 69 65 63 63 70 25 24 45 46 50 48 47 50 49 72 96 78 78 89 86 85 82 87 86 81 84 73 77 75 65 80 84 100 100 97 96 97 98 92 78 63 54
73 75 87 85 71 70 71 69 63 62 65 15 34 46 50 46 60 68 59 77 84 83 71 72 72 79 82 87 83 80 76 89 74 76 78 66 97 98 98 93 87 92 82 79 62 70 59
77 78 83 81 68 66 69 68 64 59 63 33 20 36 50 48 97 81 61 63 70 73 69 66 66 66 69 90 84 89 88 65 75 76 83 72 85 97 96 94 86 88 81 81 72 61 79
78 81 77 77 72 70 66 63 60 60 62 59 16 30 44 50 54 88 73 67 69 64 64 65 64 63 66 82 73 88 78 73 69 68 67 74 74 76 61 69 76 80 72 89 82 83 62
78 82 85 79 75 67 70 68 64 62 65 63 22 20 38 55 60 58 61 62 62 79 60 67 76 80 78 78 78 79 90 75 79 68 73 82 79 60 54 57 63 65 71 87 86 76 66
69 76 79 72 71 65 67 68 67 62 68 51 23 16 39 40 57 62 64 62 69 70 68 86 73 90 85 79 72 76 63 83 76 73 75 74 77 75 68 61 58 54 56 84 70 69 77
62 64 65 63 61 61 59 68 71 69 75 55 25 23 13 42 50 67 94 72 72 74 68 67 78 91 93 91 80 81 88 86 87 69 87 90 84 77 84 78 78 76 40 44 49 46 55
58 58 61 58 59 61 65 76 84 82 81 74 29 37 24 44 58 87 63 68 69 68 73 70 79 97 84 83 76 80 87 91 82 84 88 98 90 88 96 87 83 67 56 69 61 66 53
61 60 63 63 65 68 73 77 90 85 76 80 55 41 25 24 24 70 78 80 78 73 73 80 82 82 86 88 99 98 95 98 98 88 87 94 90 96 94 74 64 58 61 77 82 89 67
63 61 65 68 69 70 73 80 81 83 87 82 82 91 94 31 31 27 42 77 90 98 87 85 85 84 90 92 93 86 80 74 95 96 87 95 92 90 89 79 62 76 72 76 85 91 79
68 68 72 73 74 72 74 82 85 82 82 84 87 90 91 94 60 24 24 26 34 73 93 100 86 90 96 95 96 88 78 86 84 83 99 99 93 94 88 80 72 70 80 82 94 97 89
74 71 72 74 76 73 78 82 86 88 81 77 79 82 91 93 95 72 40 37 30 26 39 82 96 96 99 98 96 93 80 80 83 82 90 92 94 93 88 85 80 59 86 92 98 88 89
77 76 73 74 80 80 80 85 91 97 93 85 80 83 85 87 94 92 84 74 62 53 42 33 74 90 100 97 96 95 82 81 83 76 89 88 79 75 79 77 71 62 77 89 89 86 90

GFSGBSN_700_rhum_042.txt.gz
RH
75 74 60 61 59 21 24 27 8 8 19 66 36 45 75 76 84 91 85 74 79 80 89 90 86 97 96 92 79 80 32 98 69 86 91 67 31 38 61 30 57 65 71 61 61 62 65
74 78 65 61 59 20 28 20 8 12 19 16 39 57 73 77 79 87 77 78 79 87 78 65 64 69 75 75 74 91 79 74 99 98 98 84 40 75 91 88 63 62 70 70 61 62 63
79 83 76 63 61 21 32 14 16 15 29 28 26 51 62 70 80 87 77 82 83 81 70 52 41 48 43 41 60 68 99 57 99 98 97 95 64 97 91 92 93 90 82 80 73 68 62
76 87 80 68 63 23 34 13 25 22 40 39 17 35 49 67 77 75 69 76 70 65 60 56 52 49 41 38 28 45 99 87 93 84 100 70 94 98 92 93 89 84 80 84 70 73 60
76 80 83 68 65 28 36 18 28 30 36 39 29 24 46 64 60 38 43 69 53 47 47 54 50 49 46 38 27 46 94 100 87 97 99 100 97 99 94 98 93 82 73 79 75 65 58
77 79 82 66 68 48 33 38 19 32 32 39 46 45 31 39 75 58 53 62 52 51 62 61 57 51 47 75 38 47 78 100 57 92 98 99 96 82 93 98 90 69 72 66 70 69 56
82 86 82 69 69 61 27 42 13 26 30 30 42 40 46 46 32 62 81 77 82 84 76 89 95 55 65 85 47 58 98 83 86 98 94 95 90 67 59 66 64 68 68 59 58 62 56
72 97 91 68 71 66 23 38 40 26 21 30 33 43 54 68 59 57 46 43 52 64 84 59 61 74 99 68 62 84 98 98 99 99 98 82 85 71 83 77 69 55 52 53 51 52 55
72 94 92 68 72 71 54 27 39 48 44 27 32 38 51 62 79 94 93 96 88 92 96 98 98 98 82 84 77 91 98 98 100 100 92 99 96 87 84 77 68 56 54 48 54 60 60
71 76 87 73 74 75 70 25 30 42 54 53 31 41 42 54 60 76 97 95 98 91 95 95 87 85 99 95 98 98 97 98 99 94 94 97 94 90 99 83 62 59 57 55 55 72 64
82 78 80 69 78 79 74 71 19 30 47 58 59 38 37 37 50 57 83 93 97 96 97 86 91 84 95 98 98 100 89 98 93 97 96 95 90 80 84 79 67 64 56 61 64 64 77
70 78 76 72 76 76 72 72 69 19 31 42 54 55 48 38 37 46 70 82 91 89 96 97 98 98 98 98 97 100 95 98 98 97 99 95 84 99 99 96 82 79 72 70 72 76 84
68 81 74 77 70 68 68 69 68 66 18 33 40 52 49 48 50 52 60 81 94 92 92 96 98 98 84 99 98 96 92 99 92 99 99 99 100 88 97 99 99 96 76 86 91 92 86
68 65 76 71 74 67 62 62 62 65 60 18 32 48 49 54 47 50 65 68 89 94 92 94 100 98 98 85 84 88 98 99 94 85 93 98 98 98 99 98 89 89 66 69 72 91 74
70 68 63 70 72 68 54 56 57 64 65 28 28 46 45 43 40 48 62 77 89 99 98 93 95 90 94 94 96 98 98 98 99 98 96 96 95 99 99 99 94 92 82 81 69 42 57
83 63 69 66 63 70 58 48 50 60 60 63 21 46 44 40 46 44 46 64 96 89 93 90 84 89 80 92 97 98 95 98 98 98 95 92 93 97 97 99 96 88 85 94 79 88 63
62 61 56 60 64 61 53 49 42 52 55 58 19 37 46 50 56 53 52 57 74 72 67 87 84 78 81 84 79 79 82 90 89 84 91 98 84 98 99 98 97 89 90 87 84 70 87
56 56 58 60 58 57 59 51 46 48 49 56 53 31 42 54 74 97 64 62 56 62 62 65 68 78 77 81 79 76 77 84 76 77 78 80 88 96 99 98 97 98 92 86 87 77 55
52 53 57 58 53 50 45 46 48 50 47 53 60 15 38 53 99 97 65 67 68 68 61 65 69 61 60 80 77 80 79 64 74 78 81 65 73 97 98 92 97 96 91 89 96 72 65
49 54 53 49 46 44 45 47 48 58 58 56 59 19 35 48 78 99 94 84 80 69 62 62 61 60 62 75 70 84 88 67 59 68 70 71 81 83 75 73 68 83 81 80 80 69 65
51 52 49 46 45 45 47 46 46 56 61 62 53 27 27 65 64 71 91 95 97 96 71 66 75 81 82 78 76 82 86 66 68 68 64 69 71 63 70 61 58 57 70 80 84 70 67
49 52 50 47 47 48 48 48 51 56 66 67 48 26 22 38 46 64 77 100 93 99 83 99 76 93 85 80 75 72 71 67 64 71 65 72 72 70 67 60 58 55 56 68 86 77 73
47 51 50 50 52 48 50 52 61 63 70 76 53 28 31 23 45 71 96 98 100 87 86 74 85 92 87 90 80 82 82 84 85 69 64 67 62 67 86 82 75 70 32 35 42 48 46
44 49 56 57 56 55 57 59 62 64 66 74 72 29 45 66 52 100 100 96 85 79 86 72 88 96 90 83 78 75 77 90 89 92 84 94 90 80 85 83 96 48 56 50 44 37 40
42 54 57 55 60 63 62 64 67 75 74 80 82 80 48 50 25 45 65 75 81 86 87 85 90 86 83 85 98 87 91 91 91 91 90 98 93 87 92 84 60 51 57 59 73 72 58
37 54 56 59 61 65 65 68 69 70 75 74 86 84 92 94 84 30 26 66 82 91 99 94 88 89 84 86 93 81 79 76 88 89 91 95 97 93 92 78 79 79 71 70 79 88 80
30 51 58 63 63 67 71 76 77 71 76 76 76 82 87 94 96 86 34 26 41 74 100 96 97 90 87 85 91 80 75 82 80 82 88 92 89 92 78 84 71 66 62 74 90 89 83
35 47 56 58 65 70 75 80 83 83 78 81 79 83 84 83 89 95 94 42 29 28 38 95 98 92 94 95 95 89 86 74 77 77 82 81 86 83 82 88 85 67 66 91 93 92 91
39 49 56 60 69 70 74 81 84 84 82 79 80 59 69 80 79 80 88 92 55 53 44 32 74 99 100 97 96 94 89 74 74 80 80 85 71 81 68 70 67 66 69 90 93 90 93